| time (UTC) | temp F | wind direction | speed knots | gust knots | rain 1hr in | rain 24hr in | rain mn in | humidity % | barometer mb |
| 20260905090013 | 51 | 326 | 0.0 | 1.7 | 0.00 | 0.00 | 0.00 | 72 | 1012.5 |
| 20260905084507 | 49 | 313 | 1.7 | 4.3 | 0.00 | 0.00 | 0.00 | 74 | 1012.2 |
| 20260905083004 | 49 | 297 | 0.9 | 1.7 | 0.00 | 0.00 | 0.00 | 70 | 1012.3 |
| 20260905081500 | 51 | 292 | 0.0 | 3.5 | 0.00 | 0.00 | 0.00 | 69 | 1012.5 |
| 20260905080104 | 51 | 297 | 0.9 | 5.2 | 0.00 | 0.00 | 0.00 | 70 | 1012.9 |
| 20260905074559 | 51 | 295 | 0.9 | 2.6 | 0.00 | 0.00 | 0.00 | 70 | 1012.8 |
| 20260905073057 | 51 | 288 | 1.7 | 3.5 | 0.00 | 0.00 | 0.00 | 68 | 1012.6 |
| 20260905071557 | 52 | 265 | 0.9 | 2.6 | 0.00 | 0.00 | 0.00 | 68 | 1012.7 |
| 20260905070058 | 51 | 283 | 1.7 | 3.5 | 0.00 | 0.00 | 0.00 | 69 | 1012.2 |
| 20260905064552 | 51 | 298 | 1.7 | 2.6 | 0.00 | 0.00 | 0.00 | 68 | 1012.3 |
| 20260905063100 | 52 | 284 | 1.7 | 3.5 | 0.00 | 0.00 | 0.00 | 67 | 1012.4 |
| 20260905061605 | 52 | 281 | 0.9 | 5.2 | 0.00 | 0.00 | 0.00 | 64 | 1012.3 |
| 20260905060044 | 52 | 277 | 0.9 | 1.7 | 0.00 | 0.00 | 0.00 | 64 | 1011.9 |
| 20260905054543 | 51 | 313 | 0.9 | 3.5 | 0.00 | 0.00 | 0.00 | 63 | 1011.3 |
| 20260905053047 | 51 | 291 | 0.9 | 3.5 | 0.00 | 0.00 | 0.00 | 61 | 1011.5 |
| 20260905051539 | 53 | 281 | 0.9 | 3.5 | 0.00 | 0.00 | 0.00 | 59 | 1011.8 |
| 20260905050039 | 53 | 292 | 0.9 | 2.6 | 0.00 | 0.00 | 0.00 | 57 | 1011.6 |
| 20260905044540 | 54 | 316 | 0.0 | 2.6 | 0.00 | 0.00 | 0.00 | 55 | 1011.6 |
| 20260905043038 | 56 | 311 | 0.0 | 1.7 | 0.00 | 0.00 | 0.00 | 53 | 1011.9 |
| 20260905041537 | 58 | 71 | 0.0 | 0.9 | 0.00 | 0.00 | 0.00 | 50 | 1011.9 |
| 20260905040034 | 59 | 71 | 0.0 | 1.7 | 0.00 | 0.00 | 0.00 | 49 | 1011.1 |
| 20260905034533 | 59 | 71 | 1.7 | 2.6 | 0.00 | 0.00 | 0.00 | 48 | 1011.1 |
| 20260905033035 | 61 | 319 | 0.0 | 0.9 | 0.00 | 0.00 | 0.00 | 46 | 1011.0 |
| 20260905031532 | 63 | 319 | 0.9 | 3.5 | 0.00 | 0.00 | 0.00 | 43 | 1010.6 |
| 20260905030036 | 63 | 31 | 0.0 | 2.6 | 0.00 | 0.00 | 0.00 | 44 | 1010.5 |
| 20260905024532 | 64 | 355 | 0.9 | 1.7 | 0.00 | 0.00 | 0.00 | 42 | 1010.1 |
| 20260905023027 | 65 | 5 | 0.0 | 1.7 | 0.00 | 0.00 | 0.00 | 41 | 1010.2 |
| 20260905021524 | 66 | 5 | 0.9 | 5.2 | 0.00 | 0.00 | 0.00 | 39 | 1009.6 |
| 20260905020028 | 67 | 346 | 3.5 | 9.6 | 0.00 | 0.00 | 0.00 | 39 | 1008.9 |
| 20260905014517 | 68 | 346 | 7.0 | 11.3 | 0.00 | 0.00 | 0.00 | 37 | 1008.5 |
| 20260905013014 | 69 | 360 | 7.8 | 14.8 | 0.00 | 0.00 | 0.00 | 36 | 1007.8 |
| 20260905011514 | 70 | 321 | 5.2 | 14.8 | 0.00 | 0.00 | 0.00 | 35 | 1007.8 |
| 20260905010013 | 70 | 331 | 7.8 | 16.5 | 0.00 | 0.00 | 0.00 | 34 | 1007.9 |
| 20260905004513 | 71 | 360 | 7.0 | 13.9 | 0.00 | 0.00 | 0.00 | 34 | 1007.8 |
| 20260905003012 | 71 | 310 | 7.0 | 14.8 | 0.00 | 0.00 | 0.00 | 33 | 1008.0 |
| 20260905001510 | 72 | 344 | 7.8 | 18.2 | 0.00 | 0.00 | 0.00 | 33 | 1007.4 |
| 20260905000010 | 73 | 312 | 6.1 | 13.0 | 0.00 | 0.00 | 0.00 | 32 | 1007.3 |
| 20260904234509 | 74 | 320 | 7.8 | 15.6 | 0.00 | 0.00 | 0.00 | 31 | 1007.5 |
| 20260904233008 | 74 | 315 | 4.3 | 11.3 | 0.00 | 0.00 | 0.00 | 32 | 1007.4 |
| 20260904231507 | 75 | 11 | 5.2 | 13.0 | 0.00 | 0.00 | 0.00 | 32 | 1007.4 |
| 20260904230006 | 75 | 300 | 4.3 | 13.9 | 0.00 | 0.00 | 0.00 | 32 | 1007.5 |
| 20260904224505 | 75 | 320 | 5.2 | 11.3 | 0.00 | 0.00 | 0.00 | 32 | 1007.4 |
| 20260904223004 | 75 | 346 | 5.2 | 10.4 | 0.00 | 0.00 | 0.00 | 32 | 1007.2 |
| 20260904221613 | 75 | 343 | 5.2 | 13.0 | 0.00 | 0.00 | 0.00 | 33 | 1007.1 |
| 20260904214608 | 75 | 264 | 3.5 | 13.9 | 0.00 | 0.00 | 0.00 | 33 | 1006.5 |
| 20260904213056 | 76 | 351 | 5.2 | 12.2 | 0.00 | 0.00 | 0.00 | 33 | 1006.2 |
| 20260904211603 | 77 | 270 | 6.1 | 10.4 | 0.00 | 0.00 | 0.00 | 31 | 1006.0 |
| 20260904210055 | 77 | 241 | 4.3 | 8.7 | 0.00 | 0.00 | 0.00 | 31 | 1005.7 |
| 20260904204551 | 76 | 344 | 4.3 | 9.6 | 0.00 | 0.00 | 0.00 | 32 | 1005.5 |
| 20260904203051 | 77 | 304 | 5.2 | 10.4 | 0.00 | 0.00 | 0.00 | 30 | 1005.5 |
| 20260904201551 | 76 | 231 | 3.5 | 9.6 | 0.00 | 0.00 | 0.00 | 32 | 1005.3 |
| 20260904200059 | 75 | 303 | 6.1 | 12.2 | 0.00 | 0.00 | 0.00 | 32 | 1005.4 |
| 20260904194554 | 75 | 240 | 2.6 | 9.6 | 0.00 | 0.00 | 0.00 | 33 | 1005.1 |
| 20260904193052 | 77 | 240 | 5.2 | 9.6 | 0.00 | 0.00 | 0.00 | 31 | 1004.7 |
| 20260904191545 | 75 | 234 | 2.6 | 7.8 | 0.00 | 0.00 | 0.00 | 32 | 1004.6 |
| 20260904190042 | 74 | 302 | 2.6 | 8.7 | 0.00 | 0.00 | 0.00 | 35 | 1004.7 |
| 20260904184540 | 73 | 257 | 3.5 | 8.7 | 0.00 | 0.00 | 0.00 | 37 | 1004.7 |
| 20260904183037 | 71 | 244 | 4.3 | 8.7 | 0.00 | 0.00 | 0.00 | 37 | 1004.7 |
| 20260904181540 | 71 | 263 | 1.7 | 8.7 | 0.00 | 0.00 | 0.00 | 37 | 1004.6 |
| 20260904180033 | 70 | 252 | 3.5 | 6.1 | 0.00 | 0.00 | 0.00 | 37 | 1004.5 |
| 20260904174533 | 69 | 248 | 2.6 | 9.6 | 0.00 | 0.00 | 0.00 | 40 | 1004.5 |
| 20260904173033 | 68 | 253 | 3.5 | 9.6 | 0.00 | 0.00 | 0.00 | 40 | 1004.6 |
| 20260904171541 | 69 | 254 | 4.3 | 9.6 | 0.00 | 0.00 | 0.00 | 38 | 1004.3 |
| 20260904170029 | 69 | 207 | 3.5 | 7.0 | 0.00 | 0.00 | 0.00 | 42 | 1004.2 |
| 20260904164528 | 69 | 289 | 2.6 | 7.0 | 0.00 | 0.00 | 0.00 | 43 | 1003.9 |
| 20260904163029 | 67 | 311 | 0.9 | 4.3 | 0.00 | 0.00 | 0.00 | 43 | 1003.6 |
| 20260904161532 | 66 | 275 | 0.0 | 2.6 | 0.00 | 0.00 | 0.00 | 46 | 1003.6 |
| 20260904160019 | 65 | 19 | 0.9 | 4.3 | 0.00 | 0.00 | 0.00 | 46 | 1003.2 |
| 20260904154515 | 64 | 41 | 2.6 | 5.2 | 0.00 | 0.00 | 0.00 | 48 | 1002.8 |
| 20260904153017 | 62 | 76 | 1.7 | 7.0 | 0.00 | 0.00 | 0.00 | 49 | 1002.9 |
| 20260904151508 | 62 | 37 | 3.5 | 7.8 | 0.00 | 0.00 | 0.00 | 50 | 1002.7 |
| 20260904150015 | 61 | 29 | 5.2 | 7.0 | 0.00 | 0.00 | 0.00 | 51 | 1002.7 |
| 20260904144501 | 59 | 65 | 0.9 | 6.1 | 0.00 | 0.00 | 0.00 | 55 | 1002.8 |
| 20260904143100 | 56 | 331 | 0.9 | 3.5 | 0.00 | 0.00 | 0.00 | 65 | 1003.0 |
| 20260904141600 | 55 | 321 | 1.7 | 3.5 | 0.00 | 0.00 | 0.00 | 67 | 1003.2 |
| 20260904140058 | 55 | 326 | 1.7 | 5.2 | 0.00 | 0.00 | 0.00 | 66 | 1003.3 |
| 20260904134601 | 54 | 302 | 0.0 | 1.7 | 0.00 | 0.00 | 0.00 | 66 | 1003.1 |
| 20260904133056 | 54 | 312 | 0.9 | 3.5 | 0.00 | 0.00 | 0.00 | 62 | 1002.9 |
| 20260904131621 | 55 | 325 | 1.7 | 2.6 | 0.00 | 0.00 | 0.00 | 60 | 1002.9 |
| 20260904130054 | 54 | 331 | 1.7 | 3.5 | 0.00 | 0.00 | 0.00 | 61 | 1002.7 |
| 20260904124553 | 54 | 340 | 0.9 | 2.6 | 0.00 | 0.00 | 0.00 | 61 | 1002.7 |
| 20260904123057 | 55 | 318 | 0.9 | 3.5 | 0.00 | 0.00 | 0.00 | 59 | 1002.8 |
| 20260904121553 | 54 | 33 | 2.6 | 4.3 | 0.00 | 0.00 | 0.00 | 61 | 1002.7 |
| 20260904120053 | 53 | 22 | 0.9 | 2.6 | 0.00 | 0.00 | 0.00 | 63 | 1002.8 |
| 20260904114552 | 53 | 339 | 0.9 | 2.6 | 0.00 | 0.00 | 0.00 | 63 | 1002.9 |
| 20260904113047 | 52 | 327 | 0.9 | 2.6 | 0.00 | 0.00 | 0.00 | 64 | 1003.0 |
| 20260904111546 | 52 | 328 | 0.0 | 2.6 | 0.00 | 0.00 | 0.00 | 63 | 1003.1 |
| 20260904110042 | 53 | 336 | 0.9 | 2.6 | 0.00 | 0.00 | 0.00 | 62 | 1003.4 |
| 20260904104540 | 54 | 351 | 1.7 | 4.3 | 0.00 | 0.00 | 0.00 | 59 | 1003.6 |
| 20260904103050 | 55 | 316 | 1.7 | 4.3 | 0.00 | 0.00 | 0.00 | 57 | 1003.7 |
| 20260904101539 | 56 | 9 | 1.7 | 4.3 | 0.00 | 0.00 | 0.00 | 56 | 1003.8 |
| 20260904100038 | 56 | 330 | 1.7 | 5.2 | 0.00 | 0.00 | 0.00 | 54 | 1003.8 |
| 20260904094539 | 56 | 343 | 2.6 | 5.2 | 0.00 | 0.00 | 0.00 | 55 | 1003.7 |
| 20260904093034 | 55 | 342 | 2.6 | 5.2 | 0.00 | 0.00 | 0.00 | 56 | 1003.8 |
| 20260904091534 | 55 | 5 | 3.5 | 6.1 | 0.00 | 0.00 | 0.00 | 57 | 1003.8 |